Regional Weather Roundup
Issued by NWS Goodland, KS

Home | Current Version | Previous Version | Graphics & Text | Print | Product List | Glossary On
Versions: 1 2 3 4 5 6 7 8 9 10 11 12 13 14 15 16 17 18 19 20 21 22 23 24 25 26 27 28 29 30 31 32 33 34 35 36 37 38 39 40 41 42 43 44 45 46 47 48 49 50
000
ASUS43 KGLD 251608
RWRGLD

GOODLAND FORECAST AREA HOURLY WEATHER ROUNDUP
NATIONAL WEATHER SERVICE GOODLAND KS
900 AM MST THU DEC 25 2014

...OFFICIAL OBSERVATIONS...

CITY           SKY/WX    TMP DP  RH WIND       PRES   REMARKS
GOODLAND KS    MOSUNNY   35  25  66 W8        29.43R
HILL CITY KS   SUNNY     36  21  54 S15       29.46F
IMPERIAL NEB   SUNNY     31  23  72 N8        29.45R
MCCOOK NEB     SUNNY     29  22  75 E6        29.44R
AKRON CO       PTSUNNY   42  25  50 E9        29.44R
BURLINGTON CO  SUNNY     36  23  59 SW7       29.42R
LIMON CO       SUNNY     35  24  64 NW8       29.42R
$$

...UNOFFICIAL OBSERVATIONS...

CITY           SKY/WX    TMP DP  RH WIND       PRES   REMARKS
COLBY KS       SUNNY     36  28  75 W7        29.42R
GOVE KS          N/A     36  32  85 MISG        N/A
NORTON KS      SUNNY     34  18  51 SE7       29.44F
SHARON SPRINGS   N/A     40  29  64 SW12        N/A
TRIBUNE KS     MOSUNNY   41  30  65 SW5       29.46
KIT CARSON CO    N/A     36  28  73 MISG        N/A
YUMA CO          N/A     37  26  65 NE8         N/A
$$


USA.gov is the U.S. government's official web portal to all federal, state and local government web resources and services.